Torna al catalogo

STARLINK-31180

AttivoComunicazioniVLEO
NORAD 58732·PAYLOAD·🇺🇸 United States

Lanciato Jan 7, 2024 da Cape Canaveral Space Force Station

Loading…

Prossimi Passaggi (prossime 24 ore)

TLE

AggiornatoSource: CelesTrak SupGP

Epoca: Sep 14, 2026, 22:17 UTC

1 58732C 24005E   26257.92895833  .00024895  00000+0  90170-3 0  2579
2 58732  43.0026 231.0127 0001398 260.3740 172.8473 15.27565317    16

Traccia STARLINK-31180 in tempo reale con AllMySat

Download on the App Store